ES2JT Weather Reports


time (UTC)temp
F
wind
direction
speed
knots
gust
knots
rain 1hr
in
rain 24hr
in
rain mn
in
humidity
%
barometer
mb
20260505053515 55 237 10.4 15.6 0.00 0.18 0.05 62 997.3
20260505052404 54 231 10.4 14.8 0.00 0.18 0.05 68 997.1
20260505051502 53 190 12.2 15.6 0.00 0.18 0.05 68 997.1
20260505050812 52 216 11.3 15.6 0.00 0.18 0.05 70 997.3
20260505041416 47 219 8.7 12.2 0.00 0.18 0.05 91 997.4
20260505040513 46 211 9.6 13.0 0.00 0.18 0.05 90 997.4
20260505035402 47 196 11.3 13.9 0.00 0.18 0.05 92 997.4
20260505034502 48 206 7.8 12.2 0.00 0.18 0.05 94 997.5
20260505033815 47 217 8.7 11.3 0.00 0.18 0.05 95 997.5
20260505032702 46 216 7.8 13.0 0.00 0.18 0.05 97 997.4
20260505032015 46 222 7.8 12.2 0.00 0.18 0.05 97 997.5
20260505030903 46 208 7.0 9.6 0.00 0.18 0.05 97 997.3
20260505030003 45 218 6.1 8.7 0.00 0.18 0.05 97 997.5
20260505025312 45 208 7.0 7.8 0.00 0.18 0.05 97 997.6
20260505024414 44 215 6.1 8.7 0.00 0.18 0.05 98 997.6
20260505023512 45 210 7.0 10.4 0.00 0.18 0.05 97 997.5
20260505022403 45 225 7.0 9.6 0.00 0.18 0.05 97 997.5
20260505021711 45 216 7.0 9.6 0.00 0.18 0.05 97 997.4
20260505020602 45 262 7.8 10.4 0.00 0.18 0.05 97 997.6
20260505015916 45 235 7.0 9.6 0.00 0.18 0.05 97 997.6
20260505014802 45 203 6.1 9.6 0.00 0.18 0.05 97 997.6
20260505013904 45 219 6.1 8.7 0.00 0.18 0.05 97 997.8
20260505013213 46 208 6.1 9.6 0.00 0.18 0.05 96 997.9
20260505012316 46 213 6.1 7.8 0.00 0.18 0.05 96 997.7
20260505011413 46 227 7.8 11.3 0.00 0.18 0.05 96 997.7
20260505010302 46 219 8.7 11.3 0.00 0.18 0.05 96 997.8
20260505005612 46 228 8.7 12.2 0.00 0.18 0.05 95 997.9
20260505004715 46 216 8.7 13.0 0.00 0.18 0.05 95 997.9
20260505003812 46 240 9.6 13.0 0.00 0.18 0.05 96 997.9
20260505002915 46 202 9.6 13.0 0.00 0.18 0.05 96 997.8
20260505001802 46 228 8.7 13.0 0.05 0.18 0.05 97 997.9
20260505001114 46 234 7.0 8.7 0.05 0.18 0.05 97 997.7
20260505000003 46 224 9.6 14.8 0.05 0.18 0.05 97 998.0
20260504235102 46 231 7.8 14.8 0.05 0.18 0.05 97 997.9
20260504234202 46 219 8.7 11.3 0.05 0.18 0.05 97 997.7
20260504233303 46 216 8.7 11.3 0.05 0.18 0.05 98 998.0
20260504192226 46 14 2.6 3.5 0.00 0.13 0.13 94 997.0
20260504191326 46 14 2.6 3.5 0.00 0.13 0.13 94 997.0
20260504190426 46 14 2.6 3.5 0.00 0.13 0.13 94 997.0
20260504185741 46 14 2.6 3.5 0.00 0.13 0.13 94 997.0
20260504184626 46 14 2.6 3.5 0.00 0.13 0.13 94 997.0
20260504183726 46 14 2.6 3.5 0.00 0.13 0.13 94 997.0
20260504183038 46 14 2.6 3.5 0.00 0.13 0.13 94 997.0
20260504182140 46 14 2.6 3.5 0.00 0.13 0.13 94 997.0
20260504181027 46 14 2.6 3.5 0.00 0.13 0.13 94 997.0
20260504180126 46 14 2.6 3.5 0.00 0.13 0.13 94 997.0
20260504175227 46 14 2.6 3.5 0.00 0.13 0.13 94 997.0
20260504174327 46 14 2.6 3.5 0.00 0.13 0.13 94 997.0
20260504173637 46 14 2.6 3.5 0.00 0.13 0.13 94 997.0
20260504172526 46 14 2.6 3.5 0.00 0.13 0.13 94 997.0
20260504171626 46 14 2.6 3.5 0.00 0.13 0.13 94 997.0
20260504170726 46 14 2.6 3.5 0.00 0.13 0.13 94 997.0
20260504160426 46 14 2.6 3.5 0.00 0.13 0.13 94 997.0
20260504151026 46 14 2.6 3.5 0.00 0.13 0.13 94 997.0
20260504150126 46 14 2.6 3.5 0.00 0.13 0.13 94 997.0
20260504140726 46 14 2.6 3.5 0.00 0.13 0.13 94 997.0
20260504130427 46 14 2.6 3.5 0.00 0.13 0.13 94 997.0
20260504120126 46 14 2.6 3.5 0.05 0.13 0.13 94 997.0
20260504100426 50 280 1.7 3.5 0.02 0.02 0.02 82 997.6
20260504090126 53 290 2.6 4.3 0.00 0.00 0.00 76 998.7
20260504081626 57 300 2.6 4.3 0.00 0.00 0.00 60 998.9
20260504080726 58 64 0.9 1.7 0.00 0.00 0.00 62 998.8
20260504060126 54 284 2.6 3.5 0.00 0.00 0.00 62 999.4